Location: Gerlach
(40.6516°N, 119.3568°W)
Time: 16:27:46
(UTC-07:00)

ITAMSAT 1 - Pass Details

Date: 07 August 2024
Orbit: 782 x 795 km, 98.8° (Epoch: 14 September)

Event Time Altitude Azimuth Distance (km) Brightness Sun altitude
Exits shadow 21:42:20 16° 174° (S) 1,938 9.3 -16.7°
Maximum altitude 21:46:27 73° 257° (WSW) 831 7.8 -17.3°
Drops below altitude 10° 21:51:41 10° 342° (NNW) 2,370 11.0 -18.1°
Sets 21:54:02 0° 345° (NNW) 3,304 11.9 -18.4°
